Location: Worbis
(51.4200°N, 10.3633°E)
Time: 13:24:22
(UTC+00:00)

Daily predictions for brighter satellites

Satellite Brightness Start Highest point End
(mag) Time Altitude Azimuth Time Altitude Azimuth Time Altitude Azimuth
BREEZE-M DEB (TANK) 3.8 18:49:07 10° SW 18:53:08 69° SSE 19:07:46 10° ENE
Cosmos 2058 2.9 18:55:49 10° N 19:00:02 78° ENE 19:04:12 10° SSE
Cosmos 1892 4.3 19:03:47 10° NNW 19:07:19 38° W 19:10:51 10° SSW
Exosat Rocket 4.1 19:01:23 10° NNW 19:08:05 76° WSW 19:13:15 10° SSE
Cosmos 1356 3.5 19:04:55 10° N 19:08:20 60° ENE 19:11:42 10° SSE
Cosmos 2279 Rocket 4.3 19:04:24 10° SSE 19:10:17 48° E 19:16:12 10° NNE
OBJECT-B 1.1 19:07:54 10° S 19:11:06 69° WSW 19:14:22 10° NNW
Cosmos 1825 2.4 19:07:59 10° NNW 19:11:46 72° W 19:15:32 10° S
Lacrosse 5 rocket 2.7 19:09:53 10° WNW 19:13:47 39° N 19:17:54 10° ENE
Cosmos 2026 Rocket 4.1 19:08:12 10° NNW 19:14:18 83° W 19:20:25 10° S
DMSP B5D2-2 4.4 19:09:04 10° NNE 19:14:20 75° WNW 19:19:34 10° SSW
BREEZE-M DEB (TANK) 4.0 19:09:53 10° WSW 19:14:31 47° S 19:19:38 10° E
Cosmos 2227 Rocket 3.3 19:10:24 10° SSE 19:14:46 23° ESE 19:19:08 10° NE
Cosmos 482 Debris 2.8 19:12:50 10° W 19:15:26 83° NNW 19:17:23 10° E
Landsat 7 4.5 19:12:32 10° SE 19:16:57 40° ENE 19:21:25 10° N
Cosmos 909 Rocket 4.1 19:13:36 10° SSW 19:19:46 60° ESE 19:26:11 10° NE
Cosmos 1818 3.6 19:14:39 10° SSW 19:20:03 69° SE 19:25:31 10° NE
Cosmos 1140 Rocket 4.3 19:16:26 10° SSE 19:20:48 29° E 19:25:10 10° NE
Cosmos 2297 Rocket 2.9 19:16:30 10° SSE 19:21:26 32° ESE 19:26:24 10° NE
USA 186 3.7 19:21:31 10° SSW 19:24:27 30° W 19:27:17 10° NNW
SJ-6B 3.6 19:21:37 10° S 19:25:14 49° W 19:28:56 10° NNW
Cosmos 44 3.5 19:22:19 10° SW 19:27:31 87° SE 19:32:58 10° NE
Cosmos 2333 Rocket 3.9 19:22:36 10° NW 19:27:35 31° WSW 19:32:32 10° SSW
Cosmos-2242 4.1 19:24:21 10° SE 19:27:59 26° E 19:31:35 10° NNE
Cosmos 2219 3.8 19:24:00 10° SSE 19:28:56 33° ESE 19:33:55 10° NE
Genesis I 3.3 19:27:12 10° NW 19:31:13 73° NE 19:34:31 15° SE
Cosmos 2151 3.3 19:27:07 10° N 19:31:21 50° ENE 19:35:15 12° SSE
Cosmos 2266 Rocket 4.3 19:26:10 10° N 19:32:22 50° ENE 19:38:12 11° SSE
NOSS 3-4 (A) 4.4 19:27:22 10° WSW 19:33:11 51° NNW 19:39:34 10° NE
NOSS 3-4 (C) 4.4 19:27:28 10° WSW 19:33:17 51° NNW 19:39:40 10° NE
Spot 2 Rocket 4.4 19:29:23 13° SE 19:33:27 35° ENE 19:38:01 10° N
Cosmos 1633 2.7 19:31:20 10° N 19:34:53 55° ENE 19:37:56 13° SSE
Abrixas rocket 2.3 19:35:35 10° SW 19:36:36 19° S 19:36:36 19° S
Cosmos 1634 Rocket 4.3 19:32:46 10° SSW 19:39:02 75° WNW 19:45:18 10° N
IRIDIUM 106 4.3 19:36:25 10° S 19:41:35 69° E 19:46:48 10° N
ERS-2 4.4 19:39:57 10° N 19:43:09 29° WNW 19:46:21 10° SW
ARIANE 5 R/B 3.4 19:41:01 16° SE 19:44:01 35° ENE 19:47:59 10° N
Cosmos 1076 Rocket 3.8 19:40:06 10° NNW 19:44:27 71° W 19:48:44 10° S
Meteor 1-4 Rocket 4.2 19:44:56 16° E 19:45:28 16° E 19:47:43 10° NE
COSMOS 2455 3.9 19:41:09 10° SSE 19:45:45 23° ESE 19:50:21 10° ENE
ATLAS 2AS CENTAUR R/B 3.5 19:38:55 10° WSW 19:46:47 64° NW 19:54:25 10° NE
USA 245 3.6 19:46:17 19° SE 19:48:23 38° ENE 19:51:13 10° N
CZ-2C R/B 4.1 19:45:50 10° NNE 19:50:03 41° E 19:53:53 12° SSE
IGS 5A 3.4 19:47:40 12° SSE 19:51:26 84° ENE 19:55:37 10° NNW
Cosmos 1980 4.1 19:47:00 10° NW 19:52:37 62° WSW 19:58:00 11° SSE
SL-16 R/B 2.5 19:47:16 10° NNW 19:52:54 57° NE 19:56:59 19° SE
Cosmos 2221 4.4 19:52:59 13° E 19:53:33 13° E 19:55:28 10° NE
Cosmos 389 Rocket 2.8 19:53:54 10° SSW 19:57:25 69° WNW 20:01:00 10° N
Timation 2 Rocket 4.2 19:52:14 10° S 19:58:30 49° ESE 20:04:31 10° NE
SL-4 R/B 3.0 19:55:31 10° SSW 19:59:22 29° SE 20:03:01 12° E
Cosmos 1763 Rocket 4.2 19:56:07 10° NNW 20:00:52 38° NE 20:03:54 20° ESE
Cosmos 1190 Rocket 4.1 19:56:00 10° S 20:01:04 53° ESE 20:06:08 10° NNE
Ariane Rocket 4.2 19:58:02 10° SSW 20:02:47 40° W 20:07:34 10° NNW
Cosmos 2251 Rocket 4.3 19:58:18 10° SW 20:03:33 56° WNW 20:08:49 10° NNE
Cosmos 2180 Rocket 4.4 19:58:14 10° S 20:04:23 87° E 20:10:34 10° N
Cosmos 1812 Rocket 3.7 20:01:30 10° SSW 20:05:57 80° W 20:10:28 10° N
SPOT 1/Viking Rocket 3.5 20:04:57 18° SSE 20:08:57 79° ENE 20:14:12 10° NNW
NOSS 3-1 (C) 4.3 20:03:32 10° NW 20:10:32 62° NE 20:16:52 18° ESE
Cosmos 614 Rocket 4.5 20:05:36 10° SW 20:10:41 62° WNW 20:15:46 10° NNE
BREEZE-M DEB (TANK) 4.4 20:07:52 10° WSW 20:11:39 76° S 20:23:32 10° E
ATLAS 5 CENTAUR R/B 4.2 20:08:22 10° WNW 20:11:54 21° N 20:15:52 10° NE
FALCON 9 DEB 4.1 20:10:00 10° SSW 20:11:43 24° S 20:11:43 24° S
FALCON 9 DEB 3.1 20:10:50 10° WSW 20:14:17 82° NNW 20:16:59 16° ENE
Orbus 7S? 3.9 20:11:45 10° WSW 20:14:58 72° NNW 20:21:49 10° ENE
CZ-4C R/B 4.2 20:10:11 10° WNW 20:15:14 31° NNW 20:21:15 10° NE
Cosmos 1655 Rocket 4.1 20:09:10 10° NNW 20:15:28 77° W 20:21:20 12° S
SPOT 3 Rocket 4.1 20:11:35 10° S 20:16:36 57° WSW 20:21:44 10° NNW
Cosmos 1766 Rocket 3.6 20:12:18 10° N 20:16:37 62° ENE 20:18:49 27° SSE
ATLAS 3B R/B 4.3 20:11:12 10° WNW 20:16:59 28° WSW 20:22:56 10° SSW
Cosmos 2344 3.8 20:10:07 10° SW 20:17:32 76° NW 20:25:53 10° NE
RESURS DK-1 4.5 20:14:04 10° WSW 20:17:45 30° NW 20:21:28 10° NNE
CARTOSAT-1 3.6 20:16:55 27° SE 20:19:08 62° ENE 20:23:25 10° N
Cosmos 676 Rocket 4.2 20:15:17 15° S 20:19:15 46° ESE 20:24:12 10° NE
Cosmos 1943 4.4 20:14:29 10° NNW 20:19:27 30° NE 20:22:59 16° E
Meteor 2-3 Rocket 3.9 20:15:01 10° NNW 20:20:47 76° W 20:25:24 16° S
Okean 3 Rocket 3.6 20:17:48 10° N 20:22:21 71° ENE 20:24:42 28° SSE
Terra 2.5 20:20:42 25° ESE 20:22:51 40° ENE 20:27:18 10° N
USA 215 3.3 20:18:58 22° SE 20:23:27 77° SSW 20:30:02 10° WNW
FALCON 9 DEB 4.1 20:22:14 10° SW 20:23:54 26° SSW 20:23:54 26° SSW
Resurs 01 Rocket 2.8 20:22:52 10° SSW 20:27:02 39° W 20:31:15 10° NNW
Meteor 1-27 4.2 20:22:43 14° S 20:27:44 70° E 20:33:33 10° NNE
SPOT 5 3.0 20:25:52 29° SE 20:28:03 58° ENE 20:32:49 10° N
ERS-1 Rocket 2.9 20:34:05 30° SSE 20:36:34 73° ENE 20:41:36 10° NNW
H-2A R/B 4.3 20:33:45 10° NNE 20:37:34 32° E 20:37:50 32° ESE
Cosmos 2237 Rocket 3.7 20:35:32 10° NW 20:40:24 30° WSW 20:44:53 11° SSW
Cosmos 407 Rocket 4.1 20:41:14 10° SW 20:46:18 58° WNW 20:51:27 10° NNE
Meteor 2-8 Rocket 4.4 20:46:52 19° S 20:51:28 85° E 20:57:38 10° NNE
Cosmos 2263 Rocket 3.4 20:51:48 23° E 20:51:48 23° E 20:55:48 10° NE
Lacrosse 5 rocket 2.2 20:49:26 10° WNW 20:53:34 48° NNE 20:56:01 23° E
Cosmos 2084 Rocket 3.2 20:50:34 10° SW 20:54:33 88° NW 20:58:40 10° NE
SeaSat 1 4.3 20:53:07 10° ENE 20:54:45 15° E 20:54:45 15° E
Cosmos 1869 3.4 20:55:44 32° SSW 20:57:27 72° W 21:01:25 10° N
Cosmos 2082 3.6 20:53:32 18° SSW 20:57:40 69° ESE 21:03:17 10° NNE
Cosmos 2227 Rocket 2.4 20:52:38 10° SW 20:58:18 72° WNW 21:03:59 10° NNE
Cosmos 921 Rocket 3.8 20:55:20 10° N 20:59:32 39° ENE 21:00:29 35° E
Cosmos 1741 Rocket 4.4 21:01:00 39° SE 21:01:46 42° ESE 21:06:43 10° NE
Cosmos 1140 Rocket 4.4 20:57:23 10° SW 21:02:21 49° WNW 21:07:22 10° NNE
Cosmos 1954 Rocket 4.0 20:58:20 12° SSW 21:03:04 82° WNW 21:08:17 10° NNE
Cosmos 1842 Rocket 3.6 21:03:29 51° SE 21:04:12 58° E 21:08:37 10° NNE
Cosmos 2297 Rocket 2.9 20:59:43 10° SW 21:05:15 54° NW 21:10:50 10° NNE
Cosmos-2242 4.4 21:01:22 10° SW 21:05:23 37° WNW 21:09:25 10° N
Cosmos 1850 Rocket 4.3 21:04:35 42° SE 21:05:25 46° ESE 21:10:25 10° NE
Cosmos 1603 4.0 21:01:47 10° NNW 21:07:28 58° NE 21:09:37 36° ESE
Spot 2 Rocket 4.5 21:09:33 22° SSW 21:12:21 41° W 21:17:10 10° NNW
Cosmos 2219 4.0 21:07:25 10° SW 21:12:54 52° NW 21:18:25 10° NNE
Cosmos 1408 Rocket 3.8 21:13:02 10° NNW 21:17:19 64° W 21:18:22 46° SSW
SL-08 ROCKET BODY 4.3 21:11:26 10° N 21:17:33 81° E 21:19:44 42° SSE
Meteor 2-2 Rocket 4.2 21:16:20 38° S 21:18:40 78° E 21:24:22 10° NNE
CRYOSAT 2 4.3 21:17:15 47° S 21:18:41 87° W 21:23:38 10° N
USA 229 DEB 3.9 21:12:12 10° NW 21:19:27 85° NE 21:23:02 35° SE
Cosmos 44 Rocket 3.3 21:16:06 22° SSW 21:19:28 78° SE 21:24:43 10° NE
USA 229 3.9 21:12:17 10° NW 21:19:33 85° NE 21:23:08 35° SE
Meteor 1-4 Rocket 3.6 21:19:02 31° WSW 21:20:08 41° WNW 21:23:31 10° N
ARIANE 5 R/B 4.0 21:18:32 22° SW 21:20:29 31° W 21:24:26 10° NNW
Cosmos 2208 Rocket 4.4 21:18:23 10° NNW 21:23:38 54° ENE 21:25:06 41° ESE
Cosmos 1805 Rocket 3.8 21:20:27 10° N 21:24:43 50° ENE 21:24:58 49° E
Cosmos 1745 Rocket 4.0 21:19:38 10° N 21:25:58 68° ENE 21:28:01 43° SE
Sich 1 3.6 21:22:53 10° N 21:26:57 41° ENE 21:27:04 41° ENE
Meteor 2-15 Rocket 4.4 21:27:31 34° SSW 21:30:19 86° W 21:36:27 10° N
Cosmos 2221 2.5 21:29:48 62° SSW 21:30:28 79° W 21:34:47 10° N
COSMOS 2455 2.9 21:25:01 10° SW 21:31:03 81° NW 21:37:07 10° NE
Cosmos 1709 Rocket 4.5 21:25:13 10° N 21:31:13 47° ENE 21:32:58 37° ESE
Cosmos 841 Rocket 3.4 21:28:44 10° NNW 21:33:59 85° WSW 21:35:03 58° SSE
Cosmos 1743 Rocket 3.4 21:31:01 10° NNW 21:35:22 76° W 21:35:47 68° SSW
SL-16 R/B 3.5 21:31:49 10° NW 21:36:44 30° WSW 21:38:52 24° SW
NOSS 3-1 (A) 4.0 21:30:03 10° NW 21:37:23 87° SW 21:41:02 38° SE
Cosmos 1437 Rocket 4.2 21:39:34 27° ENE 21:39:34 27° ENE 21:41:49 10° NNE
SL-4 R/B 2.1 21:34:05 10° WSW 21:38:38 75° SSE 21:38:43 75° SSE
S3M 4.0 21:40:09 47° SSE 21:41:58 67° E 21:48:20 10° NNE
Cosmos 1763 Rocket 4.4 21:38:01 10° NW 21:42:40 38° WSW 21:43:55 33° SW
Cosmos 1633 Rocket 4.0 21:42:03 10° N 21:46:02 34° ENE 21:46:02 34° ENE
Cosmos 1862 4.3 21:42:34 10° NNW 21:46:14 36° W 21:46:37 35° WSW
Cosmos 1814 Rocket 3.9 21:42:27 10° NNW 21:47:49 89° ENE 21:48:41 63° SSE
FALCON 9 DEB 4.4 21:47:54 10° WNW 21:50:09 37° WNW 21:50:09 37° WNW
Intercosmos 24 4.2 21:52:14 68° S 21:52:50 83° E 21:56:57 10° NNE
Cosmos 540 Rocket 3.7 21:48:27 10° NNW 21:53:28 54° WSW 21:54:12 49° SW
Cosmos 1500 Rocket 4.1 21:49:25 10° NNW 21:53:45 50° W 21:54:14 48° WSW
Cosmos 2227 4.2 21:54:22 58° SE 21:54:58 61° ESE 22:00:39 10° NE
SL-24 DEB 4.4 21:55:27 55° E 21:55:32 55° E 22:00:04 10° N
NOSS 2-1 (E) 4.3 21:56:52 35° NNE 21:56:52 35° NNE 21:59:11 10° NE
Cosmos 1666 Rocket 4.0 21:51:32 10° N 21:55:52 50° ENE 21:55:52 50° ENE
Meteor 1-20 Rocket 4.2 21:51:23 10° N 21:57:14 74° ENE 21:58:20 58° SE
Cosmos 1386 Rocket 4.4 21:51:40 10° NNW 21:57:43 78° W 21:59:17 51° S
ATLAS 5 CENTAUR R/B 3.9 21:53:50 10° NW 21:58:04 27° NNE 22:02:55 10° ENE
Terra 3.1 21:59:35 28° WSW 22:00:42 31° W 22:04:57 10° NNW
NOSS 3-1 (C) 4.4 21:54:25 10° NW 22:01:35 51° WSW 22:04:15 38° S
Cosmos 1174 4.0 21:59:01 10° NW 22:03:14 71° NW 22:03:14 71° NW
Cosmos 1943 3.2 21:58:21 10° NW 22:03:57 66° WSW 22:04:47 58° SSW
CZ-4C R/B 4.3 22:00:01 10° NW 22:05:36 32° NNE 22:12:10 10° ENE
USA 215 4.3 22:06:18 28° SW 22:07:09 29° SW 22:12:41 10° WNW
Cosmos 1553 Rocket 4.3 22:08:28 35° SW 22:10:57 59° WNW 22:17:00 10° N
ALOS 2 3.0 22:14:51 55° ENE 22:14:51 55° ENE 22:19:02 10° N
Cosmos 1151 Rocket 3.8 22:21:57 42° ENE 22:21:57 42° ENE 22:25:20 10° NNE
Cosmos 1606 3.8 22:22:29 40° WNW 22:22:29 40° WNW 22:25:44 10° N
Aureole 1 Rocket 3.9 22:22:52 39° WSW 22:24:34 56° WNW 22:28:57 10° NNE
Cosmos 1500 4.3 22:26:07 10° N 22:28:56 39° NNE 22:28:56 39° NNE
Lacrosse 5 rocket 2.3 22:28:35 10° WNW 22:31:37 42° W 22:31:37 42° W
Cosmos 1782 3.7 22:35:13 44° NE 22:35:13 44° NE 22:38:10 10° NNE
SeaSat 1 2.3 22:29:24 10° NNE 22:34:23 88° SE 22:34:31 85° SSW
Cosmos 2263 Rocket 2.3 22:33:26 48° WSW 22:34:54 69° WNW 22:40:29 10° NNE
Iridium 4 Rocket 3.3 22:41:38 80° ESE 22:41:44 80° E 22:47:10 10° N
Cosmos 2184 Rocket 4.2 22:40:38 10° N 22:46:56 63° ENE 22:48:10 53° ESE
Cosmos 1933 4.1 22:48:09 49° NW 22:48:09 49° NW 22:51:37 10° N
Cosmos 1844 Rocket 3.4 22:48:08 39° E 22:48:08 39° E 22:52:47 10° NE
Cosmos 2315 Rocket 4.0 22:48:28 58° SSW 22:49:48 78° W 22:56:13 10° N
USA 281 3.7 22:47:12 34° ESE 22:49:55 54° NE 22:56:18 10° NNW
Cosmos 1242 Rocket 3.9 22:54:37 38° N 22:54:37 38° N 22:56:59 10° N
Cosmos 1515 Rocket 4.1 23:02:54 53° NE 23:02:54 53° NE 23:06:36 10° NNE
Cosmos 968 Rocket 3.4 23:03:16 83° ESE 23:03:16 83° ESE 23:08:33 10° NNE
Thor Agena Rocket 3.7 22:59:09 10° NNE 23:04:04 60° E 23:04:04 60° E
Cosmos 2082 Rocket 4.3 23:00:45 10° NNW 23:05:07 22° NE 23:09:29 10° E
Meteor 1-14 Rocket 4.3 23:02:13 10° NNW 23:08:12 69° W 23:08:50 64° SW
Cosmos 773 Rocket 4.5 23:03:18 10° NNW 23:08:31 54° ENE 23:09:20 48° E
NOSS 2-2 (D) 4.2 23:04:15 10° NW 23:09:25 77° SW 23:10:04 69° S
Cosmos 1833 Rocket 4.0 23:04:31 10° NNW 23:09:41 34° NE 23:12:53 20° E
Meteor 1-5 Rocket 4.0 23:06:48 10° NNW 23:12:35 86° W 23:12:58 78° S
Cosmos 2074 Rocket 3.9 23:08:18 10° N 23:14:36 85° W 23:15:33 66° S
Cosmos 1470 Rocket 4.2 23:11:25 10° NNW 23:15:04 51° WNW 23:15:04 51° WNW
COBE Rocket 4.0 23:16:33 67° WNW 23:16:33 67° WNW 23:21:10 10° NNW
BREEZE-M DEB (TANK) 4.4 22:59:44 10° W 23:17:47 80° S 23:21:35 18° E
Meteor 2-6 Rocket 4.0 23:20:37 74° ESE 23:20:46 75° E 23:26:11 10° NNE
Nimbus 7 Rocket 4.2 23:17:27 10° NNE 23:23:21 85° WNW 23:24:09 68° SSW
Cosmos 1933 Rocket 4.2 23:27:44 10° NNW 23:31:16 49° NW 23:31:16 49° NW
Cosmos 1610 Rocket 4.3 23:25:51 10° N 23:32:08 87° E 23:33:07 65° SSE
ATLAS 2AS CENTAUR R/B 4.4 23:25:09 10° NW 23:32:09 36° NNE 23:38:43 10° E
EO 1 Del DPAF 4.5 23:29:57 10° NNE 23:32:26 37° NE 23:32:26 37° NE
Cosmos 1486 Rocket 4.0 23:33:18 68° W 23:33:43 71° WNW 23:39:04 10° NNE
Cosmos 2278 Rocket 3.9 23:33:50 19° ESE 23:34:08 19° E 23:38:03 10° NE
Cosmos 1666 4.1 23:35:00 10° NNW 23:37:24 35° NW 23:37:24 35° NW
USA 306 4.0 23:42:22 37° ENE 23:42:22 37° ENE 23:45:03 10° ENE
Nadezhda 1 Rocket 3.9 23:40:22 63° S 23:41:29 81° E 23:47:53 10° NNE
ATLAS 5 CENTAUR R/B 2.5 23:38:16 10° NW 23:43:34 65° NE 23:46:48 28° ESE
YAOGAN 11 4.3 23:51:23 68° NE 23:51:23 68° NE 23:55:35 10° N
PSLV R/B 3.7 23:48:32 10° NNE 23:53:03 81° NNE 23:53:03 81° NNE
